DW7980 Weather Reports


Display with metric or nautical units.
time (UTC)temp
F
wind
direction
speed
MPH
gust
MPH
rain 1hr
in
rain 24hr
in
rain mn
in
humidity
%
barometer
mb
20260507064045 55 112 0.0 2.0 0.00 0.00 0.00 79 1021.8
20260507063542 55 112 0.0 2.0 0.00 0.00 0.00 79 1021.9
20260507063053 55 112 1.0 2.0 0.00 0.00 0.00 79 1021.9
20260507062541 55 0 0.0 2.0 0.00 0.00 0.00 79 1022.0
20260507062038 55 0 0.0 2.0 0.00 0.00 0.00 79 1022.0
20260507061551 55 112 0.0 2.0 0.00 0.00 0.00 79 1022.0
20260507061040 55 113 0.0 0.0 0.00 0.00 0.00 79 1021.9
20260507060542 55 0 0.0 1.0 0.00 0.00 0.00 79 1022.0
20260507060101 55 0 0.0 3.0 0.00 0.00 0.00 79 1022.0
20260507055538 55 0 1.0 3.0 0.00 0.00 0.00 78 1022.0
20260507055041 56 93 0.0 2.0 0.00 0.00 0.00 78 1021.9
20260507054543 56 0 0.0 2.0 0.00 0.00 0.00 79 1021.9
20260507054040 56 93 0.0 3.0 0.00 0.00 0.00 79 1021.9
20260507053542 56 0 0.0 5.0 0.00 0.00 0.00 78 1021.9
20260507053047 56 93 2.0 5.0 0.00 0.00 0.00 78 1021.9
20260507052544 56 0 1.0 3.0 0.00 0.00 0.00 78 1021.9
20260507052041 56 144 0.0 2.0 0.00 0.00 0.00 78 1021.9
20260507051549 56 0 0.0 5.0 0.00 0.00 0.00 78 1021.8
20260507051041 56 173 0.0 5.0 0.00 0.00 0.00 78 1021.9
20260507050538 56 173 0.0 4.0 0.00 0.00 0.00 78 1021.9
20260507050047 57 63 1.0 4.0 0.00 0.00 0.00 78 1021.9
20260507045542 57 123 1.0 3.0 0.00 0.00 0.00 77 1021.9
20260507045039 57 91 1.0 3.0 0.00 0.00 0.00 77 1021.9
20260507044559 57 0 1.0 3.0 0.00 0.00 0.00 77 1021.9
20260507044039 57 91 1.0 3.0 0.00 0.00 0.00 77 1021.9
20260507043541 57 91 0.0 3.0 0.00 0.00 0.00 78 1021.8
20260507043102 58 91 1.0 3.0 0.00 0.00 0.00 77 1021.8
20260507042538 58 22 1.0 3.0 0.00 0.00 0.00 77 1021.7
20260507042041 58 18 0.0 3.0 0.00 0.00 0.00 77 1021.6
20260507041556 58 329 0.0 2.0 0.00 0.00 0.00 78 1021.6
20260507041038 58 0 0.0 2.0 0.00 0.00 0.00 78 1021.5
20260507040541 58 0 0.0 2.0 0.00 0.00 0.00 78 1021.4
20260507040051 58 329 0.0 2.0 0.00 0.00 0.00 78 1021.4
20260507035537 58 0 0.0 3.0 0.00 0.00 0.00 78 1021.4
20260507035039 58 0 0.0 3.0 0.00 0.00 0.00 78 1021.3
20260507034547 59 39 0.0 3.0 0.00 0.00 0.00 78 1021.2
20260507034036 59 39 1.0 2.0 0.00 0.00 0.00 78 1021.2
20260507033539 59 39 0.0 1.0 0.00 0.00 0.00 77 1021.0
20260507033048 59 0 0.0 1.0 0.00 0.00 0.00 77 1021.0
20260507032539 60 0 0.0 1.0 0.00 0.00 0.00 76 1020.9
20260507032039 60 0 0.0 1.0 0.00 0.00 0.00 75 1020.8
20260507031548 60 0 0.0 1.0 0.00 0.00 0.00 75 1020.7
20260507031038 61 0 0.0 1.0 0.00 0.00 0.00 75 1020.6
20260507030539 61 0 0.0 1.0 0.00 0.00 0.00 75 1020.6
20260507030051 62 0 0.0 1.0 0.00 0.00 0.00 74 1020.5
20260507025538 62 0 0.0 1.0 0.00 0.00 0.00 74 1020.4
20260507025040 62 0 0.0 2.0 0.00 0.00 0.00 74 1020.4
20260507024555 62 0 0.0 2.0 0.00 0.00 0.00 73 1020.3
20260507024038 63 39 0.0 1.0 0.00 0.00 0.00 74 1020.3
20260507023537 63 39 0.0 1.0 0.00 0.00 0.00 73 1020.3
20260507023104 63 0 0.0 2.0 0.00 0.00 0.00 73 1020.2
20260507022538 64 0 0.0 2.0 0.00 0.00 0.00 72 1020.2
20260507022038 64 0 0.0 1.0 0.00 0.00 0.00 71 1020.2
20260507021554 65 39 0.0 2.0 0.00 0.00 0.00 70 1020.2
20260507021037 65 38 0.0 2.0 0.00 0.00 0.00 71 1020.2
20260507020538 65 0 0.0 2.0 0.00 0.00 0.00 71 1020.2
20260507020058 66 38 0.0 2.0 0.00 0.00 0.00 71 1020.3
20260507015538 66 0 0.0 3.0 0.00 0.00 0.00 71 1020.2
20260507015038 66 30 1.0 3.0 0.00 0.00 0.00 70 1020.3
20260507014549 66 0 1.0 3.0 0.00 0.00 0.00 69 1020.3
20260507014038 67 0 1.0 3.0 0.00 0.00 0.00 69 1020.4
20260507013538 67 144 0.0 2.0 0.00 0.00 0.00 71 1020.3
20260507013049 67 144 0.0 2.0 0.00 0.00 0.00 71 1020.2
20260507012542 68 144 1.0 2.0 0.00 0.00 0.00 71 1020.2
20260507012038 68 144 0.0 2.0 0.00 0.00 0.00 70 1020.2
20260507011550 68 146 1.0 2.0 0.00 0.00 0.00 70 1020.1
20260507011038 68 0 0.0 1.0 0.00 0.00 0.00 69 1020.1
20260507010538 68 0 0.0 1.0 0.00 0.00 0.00 67 1020.2
20260507010054 68 0 0.0 1.0 0.00 0.00 0.00 67 1020.2
20260507005537 69 0 0.0 2.0 0.00 0.00 0.00 66 1020.2
20260507005037 69 0 0.0 2.0 0.00 0.00 0.00 69 1020.2
20260507004548 69 0 0.0 2.0 0.00 0.00 0.00 68 1020.1
20260507004038 69 0 0.0 2.0 0.00 0.00 0.00 65 1020.2
20260507003538 69 0 0.0 3.0 0.00 0.00 0.00 68 1020.2
20260507003113 69 0 0.0 3.0 0.00 0.00 0.00 67 1020.2
20260507002540 69 0 0.0 3.0 0.00 0.00 0.00 65 1020.2
20260507002038 70 116 1.0 3.0 0.00 0.00 0.00 67 1020.2
20260507001612 69 146 0.0 2.0 0.00 0.00 0.00 68 1020.2
20260507001037 69 0 0.0 3.0 0.00 0.00 0.00 68 1020.2
20260507000543 68 147 1.0 4.0 0.00 0.00 0.00 67 1020.2
20260507000051 68 64 1.0 4.0 0.00 0.00 0.00 72 1020.2
20260506235540 67 0 0.0 4.0 0.00 0.00 0.00 69 1020.2
20260506235039 67 162 1.0 4.0 0.00 0.00 0.00 67 1020.3
20260506234554 67 0 0.0 2.0 0.00 0.00 0.00 68 1020.3
20260506234039 67 0 0.0 2.0 0.00 0.00 0.00 69 1020.3
20260506233539 67 330 0.0 3.0 0.00 0.00 0.00 69 1020.4
20260506233047 67 0 1.0 3.0 0.00 0.00 0.00 68 1020.4
20260506232539 67 65 1.0 4.0 0.00 0.00 0.00 67 1020.3
20260506232038 67 260 1.0 4.0 0.00 0.00 0.00 69 1020.3
20260506231604 67 173 1.0 4.0 0.00 0.00 0.00 68 1020.5
20260506231037 66 78 1.0 3.0 0.00 0.00 0.00 70 1020.6
20260506230540 66 0 0.0 5.0 0.00 0.00 0.00 71 1020.6
20260506230104 66 199 2.0 6.0 0.00 0.00 0.00 69 1020.6
20260506225539 66 164 1.0 6.0 0.00 0.00 0.00 71 1020.6
20260506225039 66 168 1.0 5.0 0.00 0.00 0.00 70 1020.7
20260506224549 65 182 1.0 6.0 0.00 0.00 0.00 74 1020.7
20260506224038 65 152 2.0 6.0 0.00 0.00 0.00 73 1020.8
20260506223544 64 175 2.0 6.0 0.00 0.00 0.00 72 1020.9
20260506223049 65 178 2.0 6.0 0.00 0.00 0.00 73 1020.9
20260506222538 65 128 1.0 5.0 0.00 0.00 0.00 72 1020.8
20260506222042 65 163 1.0 6.0 0.00 0.00 0.00 72 1020.8
20260506221606 66 152 0.0 6.0 0.00 0.00 0.00 71 1020.9
20260506221040 66 222 1.0 6.0 0.00 0.00 0.00 73 1020.8
20260506220538 65 143 2.0 7.0 0.00 0.00 0.00 73 1020.8
20260506220049 65 160 2.0 7.0 0.00 0.00 0.00 73 1020.8
20260506215542 65 152 1.0 6.0 0.00 0.00 0.00 74 1020.8
20260506215038 64 163 2.0 6.0 0.00 0.00 0.00 74 1020.9
20260506214551 64 177 0.0 8.0 0.00 0.00 0.00 73 1021.0
20260506214038 64 186 2.0 8.0 0.00 0.00 0.00 74 1021.0
20260506213540 64 184 0.0 4.0 0.00 0.00 0.00 77 1021.1
20260506213043 63 189 1.0 5.0 0.00 0.00 0.00 75 1021.1
20260506212538 63 192 0.0 5.0 0.00 0.00 0.00 75 1021.3
20260506212040 63 178 1.0 6.0 0.00 0.00 0.00 75 1021.3
20260506211542 63 0 2.0 6.0 0.00 0.00 0.00 75 1021.4
20260506211040 63 193 1.0 3.0 0.00 0.00 0.00 75 1021.3
20260506210540 63 174 1.0 8.0 0.00 0.00 0.00 75 1021.3
20260506210054 63 243 1.0 8.0 0.00 0.00 0.00 76 1021.3
20260506205541 63 219 2.0 8.0 0.00 0.00 0.00 76 1021.2
20260506205036 63 206 1.0 4.0 0.00 0.00 0.00 76 1021.3
20260506204550 62 188 0.0 7.0 0.00 0.00 0.00 78 1021.3
20260506204039 62 0 0.0 7.0 0.00 0.00 0.00 78 1021.2
20260506203538 62 161 2.0 6.0 0.00 0.00 0.00 77 1021.2
20260506203045 62 214 1.0 6.0 0.00 0.00 0.00 78 1021.4
20260506202538 62 169 2.0 6.0 0.00 0.00 0.00 79 1021.4
20260506202038 61 198 2.0 6.0 0.00 0.00 0.00 79 1021.4
20260506201544 61 271 1.0 4.0 0.00 0.00 0.00 79 1021.5
20260506201040 61 0 1.0 7.0 0.00 0.00 0.00 79 1021.6
20260506200539 61 180 3.0 7.0 0.00 0.00 0.00 80 1021.6
20260506200042 61 167 1.0 6.0 0.00 0.00 0.00 80 1021.6
20260506195538 60 175 1.0 6.0 0.00 0.00 0.00 79 1021.7
20260506195038 61 169 2.0 5.0 0.00 0.00 0.00 79 1021.7
20260506194550 61 178 2.0 5.0 0.00 0.00 0.00 78 1021.7
20260506194038 61 0 1.0 5.0 0.00 0.00 0.00 79 1021.7
20260506193543 61 169 2.0 5.0 0.00 0.00 0.00 79 1021.7
20260506193051 61 168 0.0 5.0 0.00 0.00 0.00 80 1021.7
20260506192538 60 146 1.0 6.0 0.00 0.00 0.00 80 1021.5
20260506192036 60 212 2.0 6.0 0.00 0.00 0.00 80 1021.5
20260506191546 60 288 1.0 5.0 0.00 0.00 0.00 80 1021.5
20260506191038 60 164 2.0 5.0 0.00 0.00 0.00 79 1021.5
20260506190538 60 184 0.0 5.0 0.00 0.00 0.00 81 1021.5
20260506190049 60 159 2.0 7.0 0.00 0.00 0.00 79 1021.4
20260506185542 59 180 3.0 7.0 0.00 0.00 0.00 81 1021.5
20260506185038 59 107 1.0 6.0 0.00 0.00 0.00 81 1021.4
20260506184551 59 159 2.0 6.0 0.00 0.00 0.00 81 1021.4
20260506184038 59 183 0.0 4.0 0.00 0.00 0.00 82 1021.5
20260506183540 59 183 2.0 4.0 0.00 0.00 0.00 81 1021.5
20260506183053 59 0 0.0 5.0 0.00 0.00 0.00 81 1021.4
20260506182537 59 0 0.0 5.0 0.00 0.00 0.00 82 1021.4
20260506182037 59 0 2.0 5.0 0.00 0.00 0.00 82 1021.5
20260506181559 58 171 1.0 5.0 0.00 0.00 0.00 83 1021.4
20260506181037 58 172 1.0 4.0 0.00 0.00 0.00 82 1021.4
20260506180543 58 169 0.0 5.0 0.00 0.00 0.00 82 1021.4
20260506180053 58 174 1.0 5.0 0.00 0.00 0.00 82 1021.4
20260506175538 58 189 0.0 5.0 0.00 0.00 0.00 83 1021.5
20260506175039 58 0 0.0 8.0 0.00 0.00 0.00 83 1021.4
20260506174553 58 241 1.0 8.0 0.00 0.00 0.00 84 1021.3
20260506174036 57 164 1.0 5.0 0.00 0.00 0.00 84 1021.2
20260506173538 57 191 1.0 5.0 0.00 0.00 0.00 84 1021.2
20260506173049 57 161 1.0 6.0 0.00 0.00 0.00 84 1021.3
20260506172538 57 173 2.0 6.0 0.00 0.00 0.00 84 1021.1
20260506172038 57 179 1.0 6.0 0.00 0.00 0.00 84 1021.2
20260506171550 57 179 2.0 6.0 0.00 0.00 0.00 84 1021.3
20260506171038 57 170 0.0 4.0 0.00 0.00 0.00 84 1021.3
20260506170538 57 169 1.0 5.0 0.00 0.00 0.00 84 1021.2
20260506170054 57 0 1.0 6.0 0.00 0.00 0.00 84 1021.1
20260506165538 57 0 2.0 6.0 0.00 0.00 0.00 84 1021.2
20260506165037 57 181 1.0 4.0 0.00 0.00 0.00 84 1021.2
20260506164601 57 175 1.0 4.0 0.00 0.00 0.00 84 1021.2
20260506164039 57 0 0.0 3.0 0.00 0.00 0.00 85 1021.1
20260506163537 57 0 0.0 3.0 0.00 0.00 0.00 85 1021.1
20260506163056 57 179 0.0 5.0 0.00 0.00 0.00 85 1020.9
20260506162541 57 180 2.0 5.0 0.00 0.00 0.00 85 1020.8
20260506162041 57 171 1.0 5.0 0.00 0.00 0.00 85 1020.9
20260506161546 57 222 0.0 5.0 0.00 0.00 0.00 85 1020.9
20260506161038 56 172 1.0 6.0 0.00 0.00 0.00 84 1020.8
20260506160540 56 284 0.0 6.0 0.00 0.00 0.00 85 1020.8
20260506160057 56 0 1.0 6.0 0.00 0.00 0.00 85 1020.4
20260506155538 56 0 2.0 6.0 0.00 0.00 0.00 85 1020.2
20260506155038 56 0 1.0 3.0 0.00 0.00 0.00 85 1020.4
20260506154602 56 182 0.0 3.0 0.00 0.00 0.00 85 1020.8
20260506154037 56 180 0.0 3.0 0.00 0.00 0.00 85 1021.0
20260506153541 56 0 1.0 3.0 0.00 0.00 0.00 85 1021.0
20260506153048 56 123 0.0 2.0 0.00 0.00 0.00 85 1021.1
20260506152538 56 0 0.0 2.0 0.00 0.00 0.00 85 1021.2
20260506152037 57 0 0.0 2.0 0.00 0.00 0.00 85 1021.1
20260506151555 57 0 0.0 1.0 0.00 0.00 0.00 85 1021.1
20260506151038 57 0 0.0 1.0 0.00 0.00 0.00 85 1021.1
20260506150539 57 0 0.0 1.0 0.00 0.00 0.00 85 1021.0
20260506150100 57 100 0.0 1.0 0.00 0.00 0.00 85 1020.9
20260506145538 57 0 0.0 0.0 0.00 0.00 0.00 86 1021.0
20260506145038 56 0 0.0 0.0 0.00 0.00 0.00 86 1020.9
20260506144550 56 0 0.0 0.0 0.00 0.00 0.00 86 1020.7
20260506144038 56 0 0.0 0.0 0.00 0.00 0.00 86 1020.7
20260506143538 56 0 0.0 0.0 0.00 0.00 0.00 86 1020.4
20260506143053 56 0 0.0 1.0 0.00 0.00 0.00 86 1020.3
20260506142538 56 0 0.0 2.0 0.00 0.00 0.00 86 1020.2
20260506142037 56 0 0.0 2.0 0.00 0.00 0.00 86 1020.3
20260506141556 56 0 0.0 2.0 0.00 0.00 0.00 86 1020.2
20260506141039 55 0 0.0 0.0 0.00 0.00 0.00 86 1020.4
20260506140539 55 0 0.0 0.0 0.00 0.00 0.00 86 1020.3
20260506140048 55 0 0.0 0.0 0.00 0.00 0.00 86 1020.2
20260506135538 55 0 0.0 0.0 0.00 0.00 0.00 86 1020.3
20260506135038 55 0 0.0 0.0 0.00 0.00 0.00 86 1020.2
20260506134551 55 0 0.0 0.0 0.00 0.00 0.00 86 1020.2
20260506134040 55 0 0.0 0.0 0.00 0.00 0.00 86 1020.1
20260506133537 55 0 0.0 0.0 0.00 0.00 0.00 86 1020.0
20260506133101 55 0 0.0 0.0 0.00 0.00 0.00 86 1020.0
20260506132538 55 0 0.0 1.0 0.00 0.00 0.00 86 1020.0
20260506132041 55 0 0.0 1.0 0.00 0.00 0.00 86 1020.0
20260506131558 55 0 0.0 0.0 0.00 0.00 0.00 86 1020.0
20260506131038 55 0 0.0 0.0 0.00 0.00 0.00 86 1020.1
20260506130538 55 0 0.0 0.0 0.00 0.00 0.00 86 1020.1
20260506130053 55 0 0.0 0.0 0.00 0.00 0.00 86 1020.0
20260506125537 55 0 0.0 0.0 0.00 0.00 0.00 86 1019.9
20260506125037 55 0 0.0 0.0 0.00 0.00 0.00 86 1019.8
20260506124548 55 0 0.0 0.0 0.00 0.00 0.00 86 1019.8
20260506124037 55 0 0.0 0.0 0.00 0.00 0.00 85 1019.8
20260506123542 55 0 0.0 0.0 0.00 0.00 0.00 85 1019.9
20260506123049 55 0 0.0 0.0 0.00 0.00 0.00 85 1019.8
20260506122540 55 0 0.0 0.0 0.00 0.00 0.00 85 1019.9
20260506122040 55 0 0.0 0.0 0.00 0.00 0.00 85 1019.8
20260506121554 56 0 0.0 0.0 0.00 0.00 0.00 85 1019.7
20260506121038 56 0 0.0 0.0 0.00 0.00 0.00 85 1019.6
20260506120538 56 0 0.0 0.0 0.00 0.00 0.00 85 1019.6
20260506120057 56 0 0.0 0.0 0.00 0.00 0.00 85 1019.7
20260506115538 56 0 0.0 0.0 0.00 0.00 0.00 85 1019.5
20260506115037 56 0 0.0 0.0 0.00 0.00 0.00 85 1019.5
20260506114550 56 0 0.0 0.0 0.00 0.00 0.00 85 1019.4
20260506114041 56 0 0.0 0.0 0.00 0.00 0.00 85 1019.4
20260506113538 56 0 0.0 0.0 0.00 0.00 0.00 85 1019.4
20260506113048 56 0 0.0 0.0 0.00 0.00 0.00 85 1019.3
20260506112540 56 0 0.0 0.0 0.00 0.00 0.00 85 1019.2
20260506112038 56 0 0.0 0.0 0.00 0.00 0.00 85 1019.1
20260506111550 56 0 0.0 0.0 0.00 0.00 0.00 85 1019.1
20260506111038 56 0 0.0 0.0 0.00 0.00 0.00 85 1019.0
20260506110538 56 0 0.0 0.0 0.00 0.00 0.00 86 1019.0
20260506110101 56 0 0.0 0.0 0.00 0.00 0.00 86 1018.9
20260506105538 56 0 0.0 0.0 0.00 0.00 0.00 86 1018.8
20260506105039 56 0 0.0 0.0 0.00 0.00 0.00 86 1018.8
20260506104558 56 0 0.0 0.0 0.00 0.00 0.00 86 1018.7
20260506104038 56 0 0.0 0.0 0.00 0.00 0.00 86 1018.6
20260506103538 56 0 0.0 0.0 0.00 0.00 0.00 86 1018.6
20260506103049 57 0 0.0 0.0 0.00 0.00 0.00 86 1018.5
20260506102538 57 0 0.0 0.0 0.00 0.00 0.00 86 1018.5
20260506102040 57 0 0.0 0.0 0.00 0.00 0.00 85 1018.4
20260506101552 57 0 0.0 0.0 0.00 0.00 0.00 85 1018.5
20260506101037 57 0 0.0 0.0 0.00 0.00 0.00 86 1018.4
20260506100538 57 0 0.0 0.0 0.00 0.00 0.00 86 1018.4
20260506100053 57 0 0.0 0.0 0.00 0.00 0.00 86 1018.3
20260506095538 57 0 0.0 0.0 0.00 0.00 0.00 86 1018.3
20260506095039 57 0 0.0 0.0 0.00 0.00 0.00 86 1018.4
20260506094600 57 0 0.0 0.0 0.00 0.00 0.00 86 1018.3
20260506094040 57 0 0.0 0.0 0.00 0.00 0.00 86 1018.2
20260506093538 57 0 0.0 0.0 0.00 0.00 0.00 86 1018.3
20260506093046 57 0 0.0 0.0 0.00 0.00 0.00 86 1018.2
20260506092538 57 0 0.0 0.0 0.00 0.00 0.00 86 1018.2
20260506092038 57 0 0.0 0.0 0.00 0.00 0.00 86 1018.2
20260506091549 57 0 0.0 0.0 0.00 0.00 0.00 86 1018.2
20260506091038 57 0 0.0 0.0 0.00 0.00 0.00 86 1018.1
20260506090537 57 0 0.0 0.0 0.00 0.00 0.00 86 1018.1
20260506090043 57 0 0.0 0.0 0.00 0.00 0.00 86 1018.0
20260506085538 57 0 0.0 0.0 0.00 0.00 0.00 86 1017.9
20260506085038 57 0 0.0 0.0 0.00 0.00 0.00 86 1018.0
20260506084616 57 0 0.0 0.0 0.00 0.00 0.00 86 1018.0
20260506084038 57 0 0.0 0.0 0.00 0.00 0.00 86 1018.0
20260506083538 57 0 0.0 0.0 0.00 0.00 0.00 86 1017.9
20260506083047 57 0 0.0 0.0 0.00 0.00 0.00 86 1017.9
20260506082538 57 0 0.0 0.0 0.00 0.00 0.00 86 1017.9
20260506082039 57 0 0.0 0.0 0.00 0.00 0.00 86 1017.9
20260506081555 57 0 0.0 0.0 0.00 0.00 0.00 86 1017.9
20260506081038 57 0 0.0 0.0 0.00 0.00 0.00 86 1017.9
20260506080538 57 0 0.0 0.0 0.00 0.00 0.00 86 1017.8
20260506073050 57 0 0.0 0.0 0.00 0.00 0.00 86 1017.6
20260506072539 57 0 0.0 0.0 0.00 0.00 0.00 86 1017.6
20260506072039 57 0 0.0 0.0 0.00 0.00 0.00 86 1017.6
20260506071549 57 0 0.0 0.0 0.00 0.00 0.00 86 1017.6
20260506071038 57 0 0.0 0.0 0.00 0.00 0.00 86 1017.6
20260506070538 57 0 0.0 0.0 0.00 0.00 0.00 86 1017.6